This is the latest recevied weather packets stored in our database for station/object KF4PPJ. If no packets are shown the sender has not sent any weather packets the latest 10 day(s).
| Time | Temp. | Humidity | Pressure | Rain* | Wind** | Luminosity | Snow |
|---|---|---|---|---|---|---|---|
| 1777842517 | 25.56° C | 42% | 1014.3 hPa | 0 mm | - | 517 W/m² | - |
| 1777842214 | 26.11° C | 40% | 1014.4 hPa | 0 mm | - | 554 W/m² | - |
| 1777841909 | 26.11° C | 41% | 1014.4 hPa | 0 mm | - | 629 W/m² | - |
| 1777841606 | 26.11° C | 40% | 1014.4 hPa | 0 mm | - | 624 W/m² | - |
| 1777841303 | 26.11° C | 41% | 1014.6 hPa | 0 mm | - | 666 W/m² | - |
| 1777841000 | 26.11° C | 41% | 1014.8 hPa | 0 mm | - | 652 W/m² | - |
| 1777840697 | 26.11° C | 42% | 1014.5 hPa | 0 mm | - | 671 W/m² | - |
| 1777840395 | 25.56° C | 43% | 1014.6 hPa | 0 mm | - | 659 W/m² | - |
| 1777840092 | 25.56° C | 43% | 1014.7 hPa | 0 mm | - | 615 W/m² | - |
| 1777839790 | 26.11° C | 42% | 1014.7 hPa | 0 mm | - | 602 W/m² | - |
| 1777839487 | 25.56° C | 44% | 1014.9 hPa | 0 mm | - | 575 W/m² | - |
| 1777839184 | 26.11° C | 42% | 1015 hPa | 0 mm | - | 599 W/m² | - |
| 1777838882 | 26.11° C | 43% | 1015 hPa | 0 mm | - | 692 W/m² | - |
| 1777838577 | 25.56° C | 45% | 1015 hPa | 0 mm | - | 723 W/m² | - |
| 1777838275 | 25.56° C | 44% | 1014.9 hPa | 0 mm | - | 726 W/m² | - |
| 1777837971 | 25.56° C | 44% | 1015.1 hPa | 0 mm | - | 724 W/m² | - |
| 1777837669 | 25.56° C | 45% | 1015.3 hPa | 0 mm | - | 744 W/m² | - |
| 1777837365 | 25° C | 46% | 1015.2 hPa | 0 mm | - | 715 W/m² | - |
| 1777837061 | 25° C | 46% | 1015.4 hPa | 0 mm | - | 715 W/m² | - |
| 1777836757 | 25° C | 48% | 1015.4 hPa | 0 mm | - | 700 W/m² | - |
| 1777836453 | 25° C | 44% | 1015.5 hPa | 0 mm | - | 677 W/m² | - |
| 1777836148 | 25° C | 46% | 1015.4 hPa | 0 mm | - | 703 W/m² | - |
| 1777835845 | 25° C | 45% | 1015.4 hPa | 0 mm | - | 757 W/m² | - |
| 1777835542 | 24.44° C | 47% | 1015.6 hPa | 0 mm | - | 738 W/m² | - |
| 1777835239 | 25° C | 46% | 1015.8 hPa | 0 mm | - | 675 W/m² | - |
* Rain latest hour (hover to see other rain measurements)
** Current wind speed in m/s (hover to see current wind gust speed)